Showing default

MUSAT3, 64573

Orbit data source: Space-Track

MUSAT3, 64573 is an American payload satellite in SSO that was launched on Mon, 23 Jun 2025 UTC via an FALCON 9 launch vehicle from the Air Force Western Test Range (AFWTR). Payload-class satellites include a variety of spacecraft equipped with specific instruments for various scientific and technological missions. These include communications satellites like Starlink; space stations such as the ISS; scientific satellites like the Hubble; Earth observation satellites from companies like Planet Labs, Umbra, and HawkEye 360; GPS; miniature CubeSats for education and research; and military/defense satellites.

Loading next visibility...
Identifier
64573, 2025-135AX
Orbit
SSO
Country
Flag of USUS
Related business
Manufacturer
Muon Space
Mission
Operational Commercial Imaging
Bus & Motor
MUON, Unknown motor
Mass
~130 kg wet, ~130 kg dry
Launch date (UTC)
2025-06-23 (8 months ago)
Launch vehicle
FALCON 9
Launch site
Air Force Western Test Range (AFWTR)
Object type
Payload
Rocket body
Debris
Shape & HBR
Box + 2 Pan, 2.5 m
Radar Cross Section
2.173 m², Large (>1 m²)

Expand to show TLE details & history
Last TLE update: 11 hours ago

TLE from 11 hours ago
0 MUSAT3
1 64573U 25135AX  26062.27415657  .00003430  00000-0  33077-3 0  9997
2 64573  97.7511 177.6956 0001510 341.7802  18.3363 14.93547441 38074
Epoch: 2026-03-03T06:34Z
TLE epoch observation values (Epoch: 2026-03-03T06:34:47.127Z)
Latitude
-0.00007°
Longitude
-82.05632°
Altitude
588.931 km
Speed
7.566 km/s
True Right ascension
11h 50m 46s
True Declination
0° 00' 00"
Sunlit
Object was in full shadow at epoch
Visualization orbit readout
Latitude
Unknown
Longitude
Unknown
Altitude
Unknown
Speed
Unknown
Apparent Right ascension
Unknown
Apparent Declination
Unknown
Sunlit
N/A
Visualization observer readout
Local Sidereal Time
21:47:54
Azimuth
Unknown
Elevation
Unknown
Doppler factor
Unknown
Orbital elements
Apogee altitude
584.952 km
Perigee altitude
582.85 km
Semi-major axis
6,962.038 km
Eccentricity
0.00015
Inclination
97.7511°
RAAN
177.6956°
Arg. of periapsis
341.7802°
True anomaly
18.34174°
Mean anomaly
18.3363°
Eccentric anomaly
18.33902°
Mean motion
3.73627 °/min
Orbital period
96.35 mins
BSTAR
0.00033077
Loading maneuver chart data...
Computing Atmospheric mass density...
Loading historical data...
Loading historical data...
Loading historical data...
Loading historical data...
Loading historical data...
Loading historical data...
Loading historical data...

Documentation

Showing up to 5 results
|